Temperature
13 13 13 12 12 12 12 12 12 12 12 12 12 12 12 12 12 12 12 12 12 11 11 11 11 11 11 11 11 11 11 11 11 11 11 11 11 12 12 12 12 11 11
13 12 12 12 12 12 12 12 12 12 12 12 12 12 12 12 12 12 12 12 11 11 11 10 10 10 10 10 10 10 10 10 10 10 10 11 11 11 11 11 11 11 11
12 12 12 12 12 12 12 12 12 12 12 12 12 12 12 12 11 11 11 11 10 10 10 10 10 10 10 10 10 10 10 10 10 10 9 9 10 10 10 10 11 11 11
12 12 12 12 12 12 12 11 11 11 11 11 11 11 11 11 11 10 10 9 9 9 9 9 9 9 9 9 9 9 9 9 9 9 8 8 8 8 9 9 9 10 10
12 12 12 11 11 11 11 11 11 10 10 10 10 10 10 10 10 9 9 9 9 9 9 9 9 9 9 9 8 8 8 8 7 7 7 7 7 7 7 8 8 8 9
12 12 11 11 11 11 10 10 10 9 9 8 8 9 9 9 9 8 8 8 8 8 8 8 8 8 8 7 7 7 7 6 6 6 6 6 6 6 6 6 7 7 7
11 11 11 11 10 10 9 9 8 8 7 7 7 7 8 8 8 7 7 7 7 7 7 6 6 6 6 6 6 5 5 5 4 4 4 4 4 4 5 5 5 6 6
11 11 10 10 9 9 8 7 7 7 6 5 5 5 5 6 6 6 5 5 5 5 5 5 5 5 4 4 4 4 3 3 2 2 2 2 3 3 3 4 4 5 5
10 10 10 9 8 8 7 6 6 6 5 5 4 3 2 1 1 3 3 4 4 4 4 4 4 3 2 2 2 2 1 0 0 0 0 1 1 2 2 3 3 3 4
10 9 9 8 7 6 6 5 5 4 4 4 3 2 1 0 -0 -1 1 2 3 3 2 2 2 1 0 -0 -1 -1 -1 -2 -2 -1 -1 -0 -0 0 1 1 2 2 2
9 8 8 7 6 5 5 4 4 4 3 3 2 2 1 0 -1 -2 -2 -2 -0 1 1 1 1 0 -1 -2 -2 -3 -3 -3 -3 -2 -2 -2 -1 -1 -0 0 0 1 1
8 8 7 6 5 5 4 4 3 3 3 2 2 1 0 -1 -2 -2 -3 -3 -3 -3 -2 -1 -0 -1 -2 -3 -4 -4 -4 -4 -4 -4 -3 -3 -2 -2 -2 -1 -1 -1 -0
8 7 6 5 4 4 3 3 3 2 2 2 1 0 -1 -1 -2 -3 -4 -4 -5 -4 -4 -4 -3 -4 -4 -4 -5 -5 -5 -5 -5 -5 -4 -4 -4 -3 -3 -3 -2 -2 -2
7 6 5 4 4 3 3 2 2 2 1 1 0 -1 -1 -2 -3 -3 -4 -5 -6 -5 -5 -5 -5 -5 -5 -6 -6 -6 -6 -6 -6 -6 -5 -5 -5 -5 -4 -4 -4 -3 -3
6 5 4 4 3 3 2 2 1 1 1 0 -1 -1 -2 -3 -3 -3 -4 -5 -7 -7 -6 -5 -6 -6 -6 -6 -7 -7 -7 -7 -7 -6 -6 -6 -6 -5 -5 -5 -4 -4 -4
5 4 4 3 3 2 2 1 1 0 -0 -1 -2 -3 -3 -4 -4 -4 -4 -5 -6 -7 -7 -6 -6 -7 -7 -7 -7 -7 -7 -7 -7 -7 -7 -6 -6 -6 -6 -5 -5 -5 -4
4 3 3 2 2 1 1 0 -0 -1 -1 -2 -3 -4 -4 -5 -5 -5 -5 -6 -7 -7 -8 -7 -7 -7 -7 -7 -7 -7 -8 -8 -8 -8 -7 -7 -7 -7 -6 -6 -6 -5 -5
3 3 2 2 1 1 0 -1 -1 -2 -3 -3 -4 -5 -5 -5 -6 -6 -6 -7 -8 -8 -8 -8 -8 -8 -8 -8 -8 -8 -8 -8 -8 -8 -8 -8 -7 -7 -7 -7 -6 -6 -6
2 2 1 1 0 -0 -1 -1 -2 -3 -3 -4 -5 -5 -6 -6 -6 -7 -8 -8 -8 -8 -8 -8 -8 -8 -8 -8 -8 -8 -8 -9 -9 -9 -9 -8 -8 -8 -8 -7 -7 -7 -6
2 1 1 0 -1 -1 -1 -2 -3 -4 -4 -5 -6 -6 -6 -7 -7 -8 -8 -8 -8 -8 -8 -8 -8 -8 -8 -8 -8 -9 -9 -9 -9 -9 -9 -9 -9 -8 -8 -8 -8 -8 -7
1 0 -0 -1 -1 -1 -2 -3 -4 -5 -5 -6 -6 -7 -7 -8 -8 -8 -8 -8 -9 -8 -8 -8 -8 -8 -8 -9 -9 -9 -9 -9 -9 -9 -9 -9 -9 -9 -9 -9 -9 -9 -8
0 -0 -1 -1 -2 -2 -3 -4 -5 -5 -6 -6 -7 -7 -8 -8 -9 -9 -9 -9 -8 -8 -8 -8 -8 -9 -9 -9 -9 -10 -10 -10 -9 -9 -10 -10 -10 -10 -10 -9 -9 -9 -8
-0 -1 -1 -2 -2 -3 -3 -4 -5 -6 -6 -7 -7 -8 -8 -9 -9 -9 -9 -9 -9 -9 -9 -9 -9 -9 -10 -10 -10 -10 -10 -10 -10 -10 -10 -10 -10 -10 -10 -10 -9 -9 -8
-1 -1 -2 -3 -3 -4 -4 -5 -6 -7 -7 -8 -8 -9 -9 -9 -9 -9 -9 -9 -9 -9 -9 -10 -10 -10 -10 -10 -10 -10 -10 -11 -11 -10 -10 -11 -10 -10 -10 -9 -9 -9 -8
-1 -2 -3 -3 -4 -4 -5 -6 -7 -7 -8 -8 -9 -9 -9 -10 -10 -9 -9 -9 -9 -10 -10 -10 -10 -10 -10 -10 -10 -10 -11 -11 -11 -11 -10 -11 -10 -10 -10 -9 -8 -8 -8
-2 -3 -3 -3 -4 -5 -6 -7 -8 -8 -9 -9 -9 -9 -10 -10 -9 -9 -9 -10 -10 -10 -10 -10 -10 -9 -9 -9 -10 -11 -11 -11 -11 -11 -10 -10 -10 -10 -10 -9 -8 -8 -8
Wind_Speed
3 2 1 2 3 3 3 3 3 4 4 6 7 6 5 6 7 9 10 14 16 17 17 17 17 18 18 18 18 17 17 17 19 19 20 22 24 26 28 30 32 33 33
4 4 4 4 5 7 7 6 5 5 5 4 7 6 6 7 9 11 12 13 15 17 17 18 19 20 20 20 19 19 19 19 19 20 21 21 22 22 24 27 29 31 33
9 6 6 6 5 9 9 7 7 5 6 7 8 8 6 6 8 9 10 11 12 14 19 20 21 22 21 21 21 21 21 21 21 21 22 22 22 22 23 23 24 26 29
13 9 7 6 8 9 6 5 6 5 6 7 7 7 7 6 6 6 7 9 10 11 16 21 22 23 22 23 23 23 23 23 24 24 24 24 23 23 23 23 23 24 25
15 11 6 6 9 6 6 6 5 5 5 7 7 6 7 6 5 4 6 7 9 10 12 18 22 23 23 23 23 24 24 25 25 26 26 26 26 26 26 25 25 25 25
15 12 7 8 8 6 6 6 5 5 4 6 6 7 8 5 3 4 6 5 8 12 15 18 18 19 22 24 25 26 27 27 27 28 28 28 28 28 28 28 28 27 27
15 11 6 6 6 6 6 7 5 5 5 5 5 5 6 5 4 5 7 6 8 11 16 17 17 15 15 23 26 29 29 29 28 28 28 28 28 29 28 28 28 28 27
13 10 7 6 6 6 7 7 6 4 4 5 4 4 5 6 5 9 6 5 7 7 9 13 14 12 14 15 23 29 28 28 28 28 28 28 29 29 29 29 29 29 29
13 11 9 6 6 6 5 5 5 5 4 4 4 4 4 4 6 5 4 5 6 7 7 7 10 12 16 16 18 22 26 27 28 29 30 31 31 31 31 31 31 31 30
11 11 10 8 5 5 5 5 5 3 3 4 3 2 2 4 4 6 5 6 8 8 9 10 9 9 14 15 18 23 25 27 31 32 32 32 32 32 32 32 32 32 32
9 9 9 7 5 4 5 5 5 4 3 3 3 3 3 3 5 5 9 8 8 7 8 8 8 6 11 13 13 18 27 31 32 32 32 33 33 33 33 33 33 33 33
5 6 7 6 5 4 4 4 4 5 4 4 4 4 3 3 6 6 10 14 11 8 9 8 9 8 8 11 16 26 30 31 32 33 33 34 34 34 34 34 34 34 34
3 4 4 4 3 4 4 4 4 5 5 5 5 4 4 4 5 7 11 15 16 10 7 6 7 7 9 10 14 26 28 30 32 33 35 36 36 36 36 35 35 35 34
2 2 3 4 4 5 5 4 4 4 5 5 7 5 4 5 5 7 9 13 17 12 8 8 5 7 7 9 16 26 20 29 32 35 36 37 37 36 36 35 35 35 34
2 3 3 4 4 5 5 5 4 6 6 5 5 5 5 5 6 7 7 8 11 18 19 11 7 6 6 7 17 17 15 27 34 35 36 36 36 36 36 35 35 35 35
3 3 4 5 5 5 5 6 6 6 6 5 4 6 6 6 7 7 7 8 9 13 18 15 12 9 9 14 21 17 16 31 33 34 35 35 35 36 37 37 37 37 36
3 4 4 5 6 6 7 6 7 7 7 7 6 7 8 8 7 7 8 8 9 11 17 20 15 11 11 12 13 10 14 13 16 31 34 36 37 37 37 37 37 37 36
3 4 5 6 7 7 7 8 8 8 8 8 8 8 8 9 9 9 9 10 11 11 15 21 20 15 14 12 13 12 15 16 13 28 34 35 36 36 37 37 37 37 37
4 5 5 6 7 8 8 8 8 8 8 9 8 8 9 10 11 10 11 12 11 13 12 17 20 17 14 13 14 15 15 12 17 22 29 31 33 35 36 37 37 37 37
5 6 6 7 7 8 8 8 8 9 9 8 8 9 9 10 12 12 13 11 12 14 14 16 17 17 16 12 12 15 17 11 14 17 22 25 29 33 35 36 36 36 36
5 6 6 7 7 8 8 11 9 9 9 9 8 8 10 16 21 18 17 15 16 16 16 17 18 18 17 16 16 15 19 18 15 14 14 15 16 15 18 26 31 34 36
5 6 7 7 8 10 17 21 17 9 8 9 9 9 11 14 19 26 29 28 25 21 19 18 18 19 20 18 17 18 20 20 19 9 12 17 15 16 16 14 27 35 36
5 6 7 7 8 11 19 21 22 13 9 9 10 11 14 16 20 14 22 27 24 28 27 20 19 19 21 20 21 22 20 20 21 17 16 19 15 17 16 19 32 35 36
5 6 7 8 8 11 20 21 23 11 9 9 10 11 12 13 16 21 19 18 16 15 19 17 15 17 18 18 18 20 20 20 19 15 13 18 17 17 18 16 29 34 35
5 6 7 8 8 10 18 21 22 9 9 10 10 10 14 14 25 31 22 19 17 14 21 25 27 26 30 30 24 17 16 16 19 17 12 13 17 18 18 17 20 28 30
6 7 7 7 8 9 16 21 22 8 10 11 9 10 18 23 29 31 20 15 17 18 18 18 19 22 19 20 25 16 15 15 17 15 9 9 16 15 12 9 9 11 16
Wind_Direction
157 125 88 53 28 20 17 14 8 4 4 4 3 355 345 343 341 342 336 338 344 348 347 342 337 334 331 327 323 320 317 312 309 304 298 290 281 273 267 262 258 254 250
110 92 69 52 43 43 48 48 32 24 18 7 359 347 340 343 344 344 343 351 359 6 10 11 9 4 358 352 345 340 335 333 329 325 319 313 306 299 290 278 270 263 258
91 82 68 54 42 43 46 44 28 27 22 8 351 341 338 340 343 341 352 7 7 13 18 14 9 4 359 354 348 343 340 338 336 334 330 326 321 314 308 301 293 283 273
85 78 69 55 46 44 37 39 24 18 14 359 340 328 328 330 336 347 8 12 8 15 16 12 8 3 357 352 347 343 339 335 332 328 324 321 318 315 313 310 306 300 294
79 77 66 53 51 46 34 29 27 20 7 351 327 317 317 322 331 7 7 6 10 15 16 6 2 356 353 352 348 344 339 334 330 325 321 317 313 310 307 305 303 302 301
74 73 65 50 48 46 32 21 15 11 5 343 324 316 306 314 339 4 0 1 6 11 9 360 354 348 350 349 345 339 334 329 324 320 316 312 309 306 302 299 297 296 295
71 67 62 49 45 49 37 24 9 2 354 348 341 321 316 331 355 345 352 355 6 5 355 347 342 338 344 342 339 333 329 325 321 317 313 310 307 304 300 297 295 293 292
68 68 62 57 47 45 34 27 22 7 351 6 351 332 337 333 344 335 323 349 358 347 335 334 326 329 337 334 329 327 324 322 320 317 314 310 308 304 301 298 295 292 290
69 67 63 60 50 47 33 21 24 24 352 340 6 40 1 318 313 299 315 336 333 322 319 319 313 323 323 323 319 319 318 318 317 315 311 307 304 302 299 296 294 292 290
67 64 60 57 47 39 28 9 22 8 359 346 340 26 253 256 293 309 307 307 309 312 303 308 306 301 306 307 309 314 315 316 314 310 307 304 302 299 297 295 293 291 290
61 60 57 50 36 25 17 9 0 356 347 331 322 312 298 270 242 271 298 306 306 297 295 292 290 289 297 299 300 307 315 313 309 307 305 302 300 298 296 294 292 291 289
52 46 50 40 27 13 0 353 349 347 337 329 319 311 312 307 309 296 301 308 305 296 289 287 290 289 293 300 306 312 311 308 307 305 303 301 299 297 296 294 292 290 288
63 37 37 27 11 353 349 350 345 337 331 330 316 306 301 293 297 304 309 310 307 301 274 265 265 274 294 298 300 305 305 305 304 303 301 300 298 296 294 292 289 287 286
103 57 37 21 5 355 352 347 335 325 329 321 323 317 307 302 301 303 306 311 312 306 294 279 265 256 269 276 287 301 300 300 300 299 298 297 296 294 292 289 287 285 284
94 57 31 12 356 349 342 339 323 314 316 312 309 308 307 301 299 296 296 299 304 308 307 299 293 264 265 274 289 295 287 294 297 297 297 296 294 292 290 288 287 285 284
62 37 15 0 347 339 331 325 313 306 310 308 304 306 305 303 302 297 294 293 288 293 298 300 301 293 286 296 298 296 289 295 296 296 294 294 293 292 290 288 286 285 283
45 20 359 345 334 324 318 312 305 305 305 299 299 306 298 300 302 302 297 293 290 289 295 300 300 299 289 286 290 276 281 280 286 292 294 294 293 291 290 288 287 285 283
23 359 343 332 321 316 310 305 304 310 298 292 290 290 293 307 304 302 299 295 293 288 291 299 303 304 297 292 291 285 296 295 289 292 294 293 293 292 291 289 287 285 283
1 344 335 323 315 311 308 302 297 292 287 284 282 284 291 299 304 303 300 297 296 298 295 297 300 301 299 298 298 298 293 288 291 293 294 293 291 290 289 288 286 285 283
347 335 327 319 314 311 304 298 295 292 288 283 279 280 286 293 298 302 304 298 303 304 300 297 298 301 302 300 300 304 304 294 293 294 291 289 289 291 289 288 287 285 283
344 333 327 321 319 316 314 318 310 304 301 296 291 286 290 306 312 312 310 311 308 304 304 304 303 305 306 309 308 307 304 303 293 288 289 288 289 285 284 283 283 282 280
338 334 325 318 318 328 328 330 330 318 310 309 308 304 303 307 309 315 313 309 308 308 307 305 306 306 306 306 307 305 305 304 302 294 291 295 290 286 283 278 279 280 279
328 322 315 312 309 315 333 334 332 334 326 315 309 308 313 315 316 302 302 308 307 305 306 305 304 303 304 306 306 305 304 302 299 301 301 295 292 288 285 282 284 283 282
314 307 304 306 308 320 335 334 333 337 316 305 300 298 299 302 307 311 309 310 305 303 301 303 298 299 302 303 303 303 301 300 296 293 291 293 296 292 290 284 285 282 281
306 299 299 304 309 316 331 332 332 315 308 302 296 298 308 308 309 315 318 314 313 310 311 309 309 309 308 309 309 308 306 305 303 301 295 289 295 298 293 287 281 281 282
294 300 303 305 305 303 321 330 328 310 311 311 305 300 313 316 316 320 322 320 318 313 315 317 314 311 307 305 309 308 303 301 300 302 297 292 299 307 302 278 270 278 283
Height
1507 1507 1507 1506 1505 1504 1503 1502 1501 1499 1498 1496 1494 1492 1490 1489 1487 1485 1482 1480 1478 1476 1474 1472 1471 1469 1468 1467 1465 1464 1462 1461 1459 1458 1456 1455 1454 1453 1452 1452 1452 1453 1453
1506 1506 1506 1505 1504 1503 1502 1500 1499 1497 1495 1493 1491 1489 1487 1485 1483 1480 1478 1475 1473 1471 1469 1468 1466 1464 1462 1461 1459 1458 1456 1455 1453 1451 1450 1448 1447 1445 1444 1444 1443 1443 1443
1505 1505 1505 1504 1503 1502 1500 1499 1497 1494 1492 1490 1487 1485 1483 1481 1478 1475 1473 1471 1469 1467 1465 1463 1461 1460 1458 1456 1454 1452 1450 1448 1446 1445 1443 1441 1439 1438 1436 1435 1434 1434 1433
1504 1504 1503 1503 1502 1500 1498 1496 1494 1491 1488 1485 1483 1481 1478 1476 1473 1471 1469 1467 1465 1463 1461 1459 1457 1455 1452 1450 1448 1446 1444 1442 1439 1437 1436 1434 1432 1431 1429 1427 1426 1425 1424
1503 1503 1502 1501 1500 1498 1496 1493 1490 1487 1484 1481 1478 1476 1473 1471 1469 1467 1465 1464 1461 1459 1457 1454 1452 1449 1446 1444 1441 1439 1436 1434 1432 1429 1427 1426 1424 1422 1421 1419 1418 1416 1415
1501 1501 1501 1500 1498 1496 1493 1491 1488 1484 1480 1477 1474 1471 1469 1466 1464 1462 1461 1460 1458 1455 1452 1449 1446 1443 1440 1437 1434 1431 1428 1425 1423 1421 1419 1417 1415 1414 1412 1411 1409 1408 1407
1500 1500 1499 1498 1496 1493 1490 1487 1485 1481 1477 1473 1469 1465 1463 1462 1459 1458 1457 1455 1452 1449 1446 1443 1439 1436 1432 1429 1426 1423 1420 1417 1415 1412 1411 1409 1407 1405 1403 1401 1400 1398 1397
1499 1499 1498 1496 1493 1491 1488 1485 1482 1479 1475 1471 1467 1461 1458 1455 1455 1454 1451 1448 1446 1443 1439 1436 1433 1429 1425 1421 1418 1415 1411 1408 1406 1404 1402 1400 1398 1396 1394 1392 1390 1389 1387
1498 1497 1496 1494 1491 1489 1486 1483 1480 1476 1473 1470 1467 1465 1460 1455 1449 1444 1443 1441 1438 1435 1432 1429 1426 1423 1419 1415 1411 1407 1404 1401 1398 1396 1394 1391 1389 1386 1384 1382 1380 1378 1377
1496 1495 1493 1491 1489 1486 1484 1481 1478 1475 1472 1468 1466 1463 1462 1458 1452 1442 1436 1434 1431 1428 1425 1422 1419 1415 1412 1408 1404 1400 1397 1394 1390 1387 1385 1382 1379 1376 1374 1372 1369 1367 1365
1494 1493 1491 1489 1487 1484 1482 1479 1476 1473 1470 1466 1463 1460 1457 1454 1450 1444 1432 1425 1423 1421 1418 1415 1411 1408 1404 1400 1397 1393 1390 1385 1382 1379 1375 1372 1369 1366 1363 1361 1358 1356 1354
1492 1491 1489 1487 1485 1482 1480 1477 1474 1470 1467 1464 1460 1456 1453 1449 1445 1439 1430 1421 1415 1412 1410 1407 1404 1401 1397 1393 1390 1386 1381 1377 1373 1369 1366 1362 1359 1356 1352 1349 1346 1344 1342
1490 1489 1487 1485 1482 1480 1477 1474 1471 1467 1463 1460 1456 1452 1449 1446 1441 1436 1427 1417 1408 1403 1400 1398 1396 1393 1390 1387 1382 1378 1373 1369 1364 1360 1355 1351 1348 1344 1340 1337 1334 1332 1329
1488 1486 1484 1482 1480 1477 1474 1470 1467 1463 1459 1456 1452 1448 1444 1440 1436 1431 1424 1415 1403 1393 1391 1389 1387 1384 1382 1378 1374 1370 1365 1360 1355 1350 1345 1340 1336 1332 1328 1325 1322 1319 1317
1485 1484 1482 1480 1477 1474 1470 1466 1463 1459 1455 1451 1447 1442 1438 1433 1429 1424 1419 1414 1407 1392 1380 1378 1377 1374 1372 1369 1365 1361 1356 1351 1346 1340 1335 1330 1324 1320 1316 1312 1309 1307 1304
1483 1481 1479 1477 1474 1470 1466 1462 1458 1454 1450 1446 1441 1436 1432 1427 1422 1417 1412 1408 1403 1395 1380 1370 1367 1365 1362 1359 1356 1352 1346 1341 1335 1329 1323 1318 1313 1308 1304 1300 1296 1293 1290
1480 1478 1476 1473 1470 1466 1462 1458 1454 1449 1445 1440 1436 1431 1426 1420 1415 1410 1405 1400 1395 1390 1379 1365 1360 1356 1352 1348 1343 1340 1335 1329 1323 1318 1312 1306 1300 1295 1291 1287 1283 1279 1277
1477 1475 1473 1470 1466 1462 1458 1453 1448 1444 1439 1434 1430 1425 1420 1414 1409 1404 1398 1392 1387 1383 1375 1363 1352 1348 1343 1339 1333 1328 1324 1319 1313 1306 1300 1294 1288 1283 1278 1273 1269 1266 1263
1475 1472 1469 1466 1461 1457 1453 1448 1443 1438 1434 1429 1425 1420 1414 1409 1402 1397 1391 1386 1380 1375 1369 1360 1348 1341 1335 1330 1324 1317 1312 1306 1300 1294 1288 1282 1276 1270 1265 1260 1256 1252 1249
1472 1469 1465 1461 1457 1452 1447 1442 1438 1433 1429 1424 1420 1415 1409 1404 1397 1391 1385 1380 1374 1367 1360 1352 1343 1334 1328 1322 1316 1308 1299 1293 1287 1282 1275 1270 1264 1258 1253 1247 1243 1238 1234
1468 1465 1461 1457 1452 1447 1442 1437 1433 1428 1423 1418 1414 1409 1404 1398 1393 1387 1382 1374 1368 1360 1353 1345 1337 1328 1321 1314 1308 1300 1291 1282 1275 1271 1263 1257 1252 1244 1238 1233 1228 1223 1219
1465 1461 1457 1452 1448 1443 1438 1433 1428 1423 1417 1412 1407 1402 1397 1391 1386 1380 1375 1368 1363 1355 1347 1339 1331 1323 1315 1308 1301 1293 1284 1275 1263 1261 1255 1245 1241 1232 1225 1220 1214 1210 1206
1461 1457 1453 1448 1443 1438 1433 1428 1423 1418 1412 1407 1401 1396 1390 1384 1379 1371 1365 1360 1354 1349 1343 1336 1325 1317 1309 1302 1295 1286 1278 1269 1259 1251 1246 1234 1228 1220 1214 1207 1202 1197 1192
1457 1453 1448 1443 1438 1433 1428 1423 1417 1411 1406 1401 1396 1391 1384 1377 1371 1365 1358 1351 1345 1339 1333 1327 1320 1311 1304 1296 1289 1281 1271 1261 1251 1244 1240 1228 1217 1210 1201 1194 1188 1183 1178
1453 1449 1444 1439 1433 1428 1423 1417 1412 1405 1400 1395 1390 1385 1380 1372 1365 1360 1352 1344 1336 1329 1324 1318 1311 1304 1296 1288 1282 1273 1265 1256 1243 1234 1231 1223 1210 1200 1190 1181 1175 1171 1166
1449 1444 1440 1435 1429 1423 1418 1413 1408 1402 1395 1388 1383 1378 1373 1367 1360 1353 1346 1338 1329 1321 1315 1307 1300 1293 1286 1280 1274 1268 1260 1252 1241 1229 1221 1216 1205 1197 1180 1169 1165 1160 1153